[[{"header":{"parameterUnit":"m.s-1","parameterCategory":1,"la1":30.2991,"la2":30.254,"lo1":-89.0895,"lo2":-89.0444,"dy":0.0017,"dx":0.0017,"nx":28,"ny":28,"refTime":"2024-03-23T03:00:00:Z","depth":0,"parameterNumber":2,"parameterNumberName":"U-component_of_WINDS"},"data":[0,0,0,0,0,0,0,0,0,0,0,0,0,0,0,0,0,0,0,0,0,0,0,0,0,0,0,0,0,0,0,0,0,0,0,0,0,0,0,0,0,0,0,0,0,0,0,0,0,0,0,0,0,0,0,0,0,0,0.9659,0.9659,0,0.9682,0.9683,0.9683,0.9651,0.965,0.9648,0.9647,0.9672,0.9674,0.9676,0,0,0,0,0,0,0,0,0,0,0,0,0,0.959,0.9591,0.9659,0.9659,0.966,0.9682,0.9683,0.9683,0.9651,0.965,0.9648,0.9647,0.9672,0.9674,0.9676,0,0,0,0,0,0,0,0,0,0,0,0,0,0.9617,0.9592,0.9659,0.9646,0.9646,0.9682,0.9683,0.9683,0.9651,0.9649,0.9648,0.9646,0.9671,0.9673,0.9676,0.9726,0,0,0.9684,0.9685,0,0,0,0,0,0,0,0,0.9616,0.962,0.9648,0.9647,0.9646,0.9662,0.9667,0.9698,0.9652,0.9649,0.9647,0.9645,0.967,0.9673,0.9681,0.9728,0.9729,0.9684,0.9686,0.9687,0.9688,0,0,0,0,0,0,0,0.9614,0.9619,0.9668,0.9649,0.9648,0.9641,0.9642,0.9673,0.9669,0.9649,0.9647,0.965,0.9669,0.9678,0.9681,0.9729,0.9684,0.9686,0.9688,0.9689,0.9821,0.9823,0,0,0,0,0,0,0.9613,0.9617,0.9668,0.9669,0.9627,0.9643,0.9645,0.9659,0.9669,0.9668,0.9651,0.9648,0.9675,0.9678,0.9682,0.9743,0.9687,0.9689,0.9691,0.9819,0.9821,0.9824,0,0,0,0,0,0,0.9612,0.9618,0.9667,0.9643,0.9648,0.9646,0.9661,0.966,0.9669,0.967,0.967,0.9661,0.9674,0.9678,0.9716,0.9744,0.969,0.9693,0.9817,0.982,0.9822,0.9866,0,0,0,0,0,0,0.961,0.9618,0.9636,0.9643,0.965,0.97,0.9663,0.9662,0.9673,0.967,0.9679,0.9679,0.9673,0.9712,0.9719,0.9746,0.9695,0.9814,0.9818,0.9822,0.9862,0.987,0.9876,0,0,0,0,0,0.9608,0.9647,0.9637,0.9643,0.9673,0.9701,0.9705,0.9696,0.9676,0.9695,0.9696,0.9679,0.974,0.9717,0.9723,0.9752,0.9813,0.9817,0.9821,0.9858,0.9868,0.9876,0,0,0,0,0,0,0.9643,0.9648,0.9637,0.9679,0.969,0.9696,0.9719,0.9706,0.9724,0.9719,0.9708,0.9711,0.9752,0.9755,0.973,0.9803,0.9773,0.9779,0.9799,0.9808,0.9815,0.9814,0.9697,0,0,0,0,0,0.9656,0.9678,0.9681,0.9719,0.9725,0.9722,0.9734,0.9726,0.9737,0.9741,0.9745,0.9757,0.9779,0.9793,0.9813,0.9862,0.9865,0.9885,0.9893,0.9899,0.9904,0.9933,0.9942,0.9838,0.9838,0.9838,0,0,0.9683,0.9688,0.9703,0.9726,0.9734,0.9758,0.9725,0.9752,0.9771,0.9746,0.9782,0.9785,0.9798,0.9842,0.9861,0.9846,0.9934,0.9904,0.9909,0.9912,0.9938,0.9948,0.9957,0.9841,0.984,0.984,0,0,0.9744,0.975,0.9782,0.9791,0.9803,0.9801,0.9809,0.9817,0.9818,0.9854,0.9836,0.9859,0.9896,0.9906,0.9916,0.9984,0.997,0.9991,1.003,1.0057,1.0066,1.0073,1.0099,1.0108,0.9996,0.9996,0.9997,0,0.9776,0.9811,0.9801,0.983,0.9841,0.982,0.9854,0.9863,0.9881,0.989,0.9873,0.9921,0.9928,0.9975,0.9992,1.0,1.001,0.999,1.0065,1.0072,1.0079,1.0104,1.0113,0.9999,0.9999,0.9999,0.9998,0,0.9851,0.9876,0.9901,0.9919,0.9934,0.9965,0.9961,0.9977,0.9969,0.9969,1.0007,1.0015,1.0037,1.0047,1.0039,1.0094,1.0085,1.0067,1.0036,1.0092,1.0115,1.0124,1.0003,1.0002,1.0001,1.0,0,0,0.9934,0.9948,0.9957,0.9966,0.9979,0.9998,1.003,1.0051,1.0066,1.008,1.0107,1.014,1.0124,1.0135,1.0129,1.0153,1.0208,1.0132,1.0132,1.0147,1.0272,1.0286,1.0297,1.0199,1.02,1.0202,1.0271,0,0.9997,1.005,1.0043,1.0094,1.0119,1.01,1.0127,1.0139,1.014,1.0162,1.0163,1.0188,1.0163,1.0171,1.0194,1.0197,1.0233,1.0191,1.0225,1.0226,1.0224,1.0309,1.0324,1.0389,1.028,1.0281,1.0283,0,1.0076,1.0094,1.0148,1.0159,1.0169,1.0193,1.0214,1.0234,1.0247,1.0247,1.0261,1.025,1.0283,1.0252,1.0298,1.027,1.0283,1.0287,1.029,1.0293,1.0259,1.0316,1.0409,1.042,1.0296,1.0295,1.0294,0,1.0134,1.0171,1.0208,1.0217,1.0229,1.0248,1.0254,1.0265,1.028,1.0298,1.0308,1.0329,1.0342,1.0359,1.0356,1.0333,1.0404,1.0372,1.0405,1.0406,1.0422,1.0421,1.052,1.0428,1.0428,1.0428,1.0428,0,1.0205,1.024,1.0235,1.0258,1.0297,1.0289,1.0327,1.0331,1.0342,1.0367,1.0352,1.0376,1.0369,1.0393,1.039,1.043,1.0435,1.0437,1.0436,1.0439,1.0439,1.0448,1.0444,1.0431,1.043,1.043,1.0429,0,1.0276,1.0274,1.0314,1.0324,1.0327,1.0355,1.0364,1.0387,1.0387,1.0419,1.0426,1.0428,1.0455,1.0453,1.0484,1.0483,1.0533,1.0525,1.0528,1.0527,1.0562,1.0559,1.0671,1.0686,1.0584,1.0585,1.0585,0,1.0322,1.0348,1.0361,1.0377,1.0384,1.0409,1.0424,1.0418,1.0434,1.0452,1.0473,1.05,1.052,1.0566,1.057,1.0595,1.0589,1.0627,1.0593,1.0596,1.0592,1.0591,1.0595,1.0634,1.0635,1.0636,1.0637,0,1.0405,1.0403,1.0424,1.0447,1.0465,1.0482,1.0497,1.0511,1.0507,1.0526,1.0554,1.057,1.0603,1.063,1.0654,1.0661,1.0649,1.0647,1.0657,1.0661,1.0662,1.0663,1.0548,1.0645,1.0644,1.0643,1.0643,1.0643,1.0466,1.0489,1.0502,1.0527,1.0538,1.0554,1.0576,1.058,1.0604,1.0629,1.0624,1.0657,1.0671,1.0702,1.0712,1.0738,1.0725,1.0738,1.0742,1.0746,1.075,1.0657,1.0742,1.0742,1.0742,1.0742,1.0742,0,1.0549,1.0557,1.058,1.0603,1.0623,1.0609,1.0627,1.0645,1.0673,1.0688,1.0709,1.0743,1.077,1.0777,1.0803,1.0823,1.0818,1.083,1.0829,1.0832,1.076,1.075,1.0834,1.0834,1.0834,1.0834,1.0834,1.0834,1.0595,1.0634,1.0634,1.0679,1.0687,1.0719,1.073,1.0745,1.0757,1.0795,1.0817,1.0821,1.0834,1.0861,1.0886,1.0887,1.0898,1.0913,1.0913,1.0846,1.0836,1.0828,1.0818,1.0915,1.0915,1.0982,1.0983,1.0984]},{"header":{"parameterUnit":"m.s-1","parameterCategory":1,"la1":30.2991,"la2":30.254,"lo1":-89.0895,"lo2":-89.0444,"dy":0.0017,"dx":0.0017,"nx":28,"ny":28,"refTime":"2024-03-23T03:00:00:Z","depth":0,"parameterNumber":3,"parameterNumberName":"V-component_of_WINDS"},"data":[0,0,0,0,0,0,0,0,0,0,0,0,0,0,0,0,0,0,0,0,0,0,0,0,0,0,0,0,0,0,0,0,0,0,0,0,0,0,0,0,0,0,0,0,0,0,0,0,0,0,0,0,0,0,0,0,0,0,-7.5188,-7.5188,0,-7.5235,-7.5235,-7.5236,-7.5194,-7.5193,-7.5191,-7.5189,-7.5232,-7.5235,-7.5238,0,0,0,0,0,0,0,0,0,0,0,0,0,-7.5059,-7.5061,-7.5188,-7.5188,-7.5189,-7.5235,-7.5235,-7.5236,-7.5195,-7.5193,-7.5191,-7.5189,-7.5232,-7.5235,-7.5238,0,0,0,0,0,0,0,0,0,0,0,0,0,-7.5111,-7.5062,-7.5187,-7.5174,-7.5173,-7.5235,-7.5235,-7.5236,-7.5195,-7.5193,-7.519,-7.5188,-7.5231,-7.5234,-7.5238,-7.5314,0,0,-7.5251,-7.5253,0,0,0,0,0,0,0,0,-7.5108,-7.5116,-7.5175,-7.5175,-7.5174,-7.5206,-7.5206,-7.5262,-7.5196,-7.5187,-7.5189,-7.5186,-7.5225,-7.523,-7.5244,-7.5316,-7.5318,-7.5251,-7.5254,-7.5256,-7.5257,0,0,0,0,0,0,0,-7.5104,-7.5113,-7.5206,-7.5176,-7.5176,-7.5164,-7.5169,-7.5216,-7.5219,-7.5187,-7.5184,-7.5191,-7.5225,-7.524,-7.5245,-7.5319,-7.5251,-7.5255,-7.5257,-7.5259,-7.5457,-7.546,0,0,0,0,0,0,-7.5103,-7.5111,-7.5205,-7.5207,-7.5134,-7.5169,-7.5174,-7.5198,-7.5219,-7.522,-7.5193,-7.5189,-7.5234,-7.524,-7.5246,-7.5337,-7.5255,-7.5259,-7.5262,-7.5455,-7.5458,-7.5461,0,0,0,0,0,0,-7.51,-7.5112,-7.5203,-7.5158,-7.5169,-7.5174,-7.5201,-7.5201,-7.5216,-7.5223,-7.5223,-7.5208,-7.5233,-7.524,-7.5298,-7.5338,-7.5261,-7.5265,-7.5451,-7.5456,-7.546,-7.552,0,0,0,0,0,0,-7.5097,-7.5111,-7.514,-7.5159,-7.5172,-7.5255,-7.5204,-7.5203,-7.5224,-7.5219,-7.5238,-7.5238,-7.5231,-7.5293,-7.5302,-7.5342,-7.5268,-7.5448,-7.5453,-7.5458,-7.5514,-7.5526,-7.5535,0,0,0,0,0,-7.5092,-7.5154,-7.5142,-7.5154,-7.5209,-7.5258,-7.5265,-7.5257,-7.5227,-7.5257,-7.5262,-7.5238,-7.5333,-7.5299,-7.531,-7.5351,-7.5445,-7.5452,-7.5458,-7.551,-7.5524,-7.5535,0,0,0,0,0,0,-7.5136,-7.5156,-7.5143,-7.5213,-7.5234,-7.5251,-7.5287,-7.5271,-7.53,-7.5294,-7.5281,-7.5286,-7.5348,-7.5355,-7.5317,-7.5427,-7.5384,-7.5393,-7.542,-7.5433,-7.5443,-7.544,-7.5271,0,0,0,0,0,-7.5155,-7.5194,-7.5208,-7.5269,-7.528,-7.5282,-7.5303,-7.5296,-7.5317,-7.5325,-7.5334,-7.5354,-7.5388,-7.5411,-7.5443,-7.5516,-7.5519,-7.555,-7.556,-7.5569,-7.5577,-7.5617,-7.5631,-7.5482,-7.5482,-7.5482,0,0,-7.5192,-7.5208,-7.5233,-7.5278,-7.5294,-7.5334,-7.529,-7.5334,-7.5364,-7.5331,-7.5387,-7.5395,-7.5416,-7.5483,-7.5512,-7.5491,-7.5619,-7.5577,-7.5584,-7.5587,-7.5625,-7.5639,-7.5652,-7.5486,-7.5486,-7.5485,0,0,-7.5281,-7.5297,-7.535,-7.5367,-7.5393,-7.5394,-7.5407,-7.5427,-7.5431,-7.5488,-7.5465,-7.5499,-7.5559,-7.5576,-7.5592,-7.5691,-7.567,-7.5701,-7.5756,-7.5796,-7.5808,-7.5818,-7.5855,-7.5868,-7.5709,-7.5709,-7.5709,0,-7.5323,-7.5385,-7.5378,-7.5425,-7.5446,-7.5421,-7.5475,-7.5491,-7.5525,-7.554,-7.5516,-7.5592,-7.5604,-7.5675,-7.57,-7.5713,-7.5728,-7.5699,-7.5807,-7.5817,-7.5827,-7.5861,-7.5875,-7.5713,-7.5713,-7.5712,-7.5712,0,-7.5437,-7.548,-7.552,-7.5556,-7.5582,-7.5631,-7.5631,-7.5658,-7.5649,-7.5653,-7.5711,-7.5726,-7.5762,-7.5778,-7.5768,-7.5848,-7.5834,-7.5809,-7.5766,-7.5845,-7.5877,-7.589,-7.5718,-7.5717,-7.5716,-7.5715,0,0,-7.5553,-7.5588,-7.5602,-7.562,-7.5647,-7.568,-7.5729,-7.5766,-7.579,-7.5814,-7.5855,-7.5907,-7.5885,-7.5904,-7.5896,-7.5931,-7.601,-7.5901,-7.5902,-7.5922,-7.6101,-7.612,-7.6135,-7.5997,-7.6,-7.6002,-7.6099,0,-7.5644,-7.5732,-7.5728,-7.581,-7.585,-7.5828,-7.5871,-7.5892,-7.5898,-7.5932,-7.5937,-7.5975,-7.5942,-7.5954,-7.5987,-7.5993,-7.6046,-7.5986,-7.6035,-7.6036,-7.603,-7.6152,-7.6172,-7.6263,-7.6112,-7.6114,-7.6115,0,-7.5761,-7.5793,-7.588,-7.5904,-7.5921,-7.596,-7.5995,-7.6028,-7.6052,-7.6053,-7.6076,-7.6063,-7.6113,-7.6069,-7.6137,-7.6097,-7.6116,-7.6122,-7.6126,-7.613,-7.6081,-7.616,-7.6292,-7.6306,-7.6135,-7.6133,-7.6132,0,-7.5839,-7.5903,-7.5964,-7.5979,-7.6009,-7.6037,-7.605,-7.6072,-7.6095,-7.6125,-7.614,-7.6175,-7.6194,-7.6221,-7.6217,-7.6186,-7.6287,-7.6242,-7.629,-7.629,-7.6311,-7.631,-7.6449,-7.6324,-7.6324,-7.6323,-7.6323,0,-7.5941,-7.5995,-7.6,-7.6037,-7.6097,-7.6093,-7.6152,-7.6162,-7.6182,-7.622,-7.6202,-7.6238,-7.6232,-7.6268,-7.6266,-7.6323,-7.6332,-7.6334,-7.6333,-7.6336,-7.6336,-7.6348,-7.6342,-7.6327,-7.6326,-7.6325,-7.6325,0,-7.6037,-7.6043,-7.6108,-7.6132,-7.6139,-7.6182,-7.6202,-7.6237,-7.6242,-7.6291,-7.6302,-7.631,-7.6351,-7.6352,-7.6398,-7.6397,-7.6467,-7.6459,-7.646,-7.6459,-7.6506,-7.6502,-7.6658,-7.6679,-7.654,-7.6541,-7.6542,0,-7.6102,-7.6143,-7.6173,-7.6199,-7.6215,-7.6256,-7.6281,-7.6278,-7.6305,-7.6337,-7.6368,-7.6409,-7.6441,-7.6509,-7.6518,-7.6554,-7.6546,-7.6599,-7.6551,-7.6554,-7.6548,-7.6546,-7.655,-7.6608,-7.6609,-7.661,-7.6611,0,-7.6217,-7.6219,-7.6256,-7.6296,-7.6327,-7.6357,-7.6384,-7.6406,-7.6407,-7.6437,-7.6481,-7.6507,-7.6557,-7.6597,-7.6633,-7.6645,-7.6629,-7.6627,-7.664,-7.6643,-7.6643,-7.6645,-7.6486,-7.6623,-7.6622,-7.6621,-7.662,-7.662,-7.63,-7.6337,-7.6365,-7.6408,-7.6429,-7.6456,-7.6492,-7.6503,-7.654,-7.6582,-7.6578,-7.6627,-7.6651,-7.6698,-7.6713,-7.6751,-7.6733,-7.6751,-7.6756,-7.6761,-7.6767,-7.6637,-7.6757,-7.6757,-7.6757,-7.6757,-7.6756,0,-7.6415,-7.6433,-7.6472,-7.6514,-7.6548,-7.6532,-7.6563,-7.6592,-7.6637,-7.6662,-7.6695,-7.6747,-7.6787,-7.68,-7.6839,-7.6866,-7.686,-7.6877,-7.6875,-7.6878,-7.678,-7.6766,-7.6882,-7.6882,-7.6881,-7.6881,-7.6881,-7.6881,-7.6479,-7.6541,-7.6547,-7.662,-7.6636,-7.6686,-7.6706,-7.6731,-7.6751,-7.681,-7.6845,-7.6854,-7.6874,-7.6915,-7.6951,-7.6954,-7.6969,-7.6989,-7.6989,-7.6897,-7.6885,-7.6873,-7.6859,-7.6992,-7.6993,-7.7084,-7.7084,-7.7085]}]]